EW2835 Weather Reports


Display with metric or nautical units.
time (UTC)temp
F
wind
direction
speed
MPH
gust
MPH
rain 1hr
in
rain 24hr
in
rain mn
in
humidity
%
barometer
mb
20260904001503 62 185 0.0 6.0 0.00 0.01 0.00 91 1013.5
20260904000001 62 241 0.0 3.0 0.00 0.01 0.00 91 1013.7
20260903234601 62 200 0.0 4.0 0.00 0.01 0.00 91 1013.8
20260903233059 61 265 0.0 5.0 0.00 0.01 0.00 90 1013.8
20260903231558 61 175 0.0 4.0 0.00 0.01 0.00 90 1014.0
20260903230055 61 220 0.0 5.0 0.00 0.01 0.00 89 1014.1
20260903224552 62 171 0.0 2.0 0.00 0.01 0.00 88 1014.3
20260903223050 62 197 0.0 2.0 0.00 0.01 0.00 87 1014.2
20260903221548 63 192 0.0 3.0 0.00 0.01 0.00 86 1014.2
20260903220053 63 189 1.0 4.0 0.00 0.01 0.00 86 1014.3
20260903214545 64 178 1.0 4.0 0.00 0.01 0.01 85 1014.1
20260903213054 64 223 1.0 3.0 0.00 0.01 0.01 84 1014.1
20260903211551 64 223 0.0 4.0 0.00 0.01 0.01 84 1014.1
20260903210052 65 165 1.0 4.0 0.00 0.01 0.01 84 1014.1
20260903204544 65 33 1.0 13.0 0.00 0.01 0.01 84 1014.1
20260903203104 65 310 1.0 7.0 0.00 0.01 0.01 84 1014.0
20260903201541 65 171 2.0 10.0 0.00 0.01 0.01 84 1013.9
20260903200040 65 251 1.0 9.0 0.00 0.01 0.01 84 1014.1
20260903194536 64 225 2.0 8.0 0.00 0.01 0.01 85 1014.1
20260903193023 64 167 1.0 9.0 0.00 0.01 0.01 85 1013.8
20260903191515 64 130 0.0 8.0 0.00 0.01 0.01 87 1014.0
20260903190012 64 219 2.0 4.0 0.00 0.01 0.01 87 1014.0
20260903184512 64 228 1.0 3.0 0.00 0.01 0.01 87 1014.1
20260903183012 64 178 0.0 2.0 0.00 0.01 0.01 87 1014.1
20260903181514 64 263 0.0 3.0 0.00 0.01 0.01 88 1014.1
20260903180019 65 284 0.0 6.0 0.00 0.01 0.01 89 1014.0
20260903174509 65 204 0.0 2.0 0.00 0.01 0.01 90 1014.0
20260903173009 65 294 0.0 1.0 0.00 0.01 0.01 90 1013.9
20260903171508 66 274 0.0 3.0 0.00 0.01 0.01 89 1013.9
20260903170013 66 286 0.0 0.0 0.00 0.01 0.01 89 1013.5
20260903164509 67 305 0.0 1.0 0.00 0.01 0.01 88 1013.6
20260903163012 67 305 0.0 0.0 0.01 0.01 0.01 87 1013.5
20260903160037 68 199 0.0 0.0 0.01 0.01 0.01 85 1013.5
20260903154546 68 234 0.0 5.0 0.01 0.01 0.01 81 1013.9
20260903153036 70 254 1.0 13.0 0.00 0.00 0.00 73 1014.4
20260903151534 72 223 1.0 6.0 0.00 0.00 0.00 65 1013.7
20260903150034 72 161 3.0 9.0 0.00 0.00 0.00 64 1013.6
20260903144542 72 184 4.0 19.0 0.00 0.00 0.00 64 1013.8
20260903143043 71 263 0.0 10.0 0.00 0.00 0.00 65 1013.7
20260903141529 71 302 0.0 8.0 0.00 0.00 0.00 65 1013.9
20260903140036 71 162 1.0 5.0 0.00 0.00 0.00 65 1014.0
20260903134529 71 240 2.0 14.0 0.00 0.00 0.00 64 1014.1
20260903133028 73 288 2.0 12.0 0.00 0.00 0.00 60 1014.1
20260903131527 72 239 3.0 12.0 0.00 0.00 0.00 61 1013.9
20260903130024 73 207 2.0 12.0 0.00 0.00 0.00 61 1014.0
20260903124523 74 267 2.0 12.0 0.00 0.00 0.00 60 1014.2
20260903123021 73 316 3.0 16.0 0.00 0.00 0.00 61 1014.2
20260903121528 72 250 1.0 9.0 0.00 0.00 0.00 62 1014.5
20260903120034 71 187 2.0 10.0 0.00 0.00 0.00 64 1014.7
20260903114514 72 280 1.0 13.0 0.00 0.00 0.00 62 1014.9
20260903113018 71 121 3.0 12.0 0.00 0.00 0.00 64 1014.9
20260903111509 70 206 3.0 14.0 0.00 0.00 0.00 64 1015.1
20260903110004 69 198 4.0 14.0 0.00 0.00 0.00 64 1015.2
20260903104503 69 240 4.0 12.0 0.00 0.00 0.00 63 1015.4
20260903103101 68 211 4.0 11.0 0.00 0.00 0.00 65 1015.8
20260903101602 68 176 0.0 13.0 0.00 0.00 0.00 68 1015.9
20260903100055 68 192 0.0 7.0 0.00 0.00 0.00 68 1016.1
20260903094556 68 151 2.0 11.0 0.00 0.00 0.00 69 1016.3
20260903093050 68 318 2.0 11.0 0.00 0.00 0.00 69 1016.4
20260903091550 67 219 0.0 13.0 0.00 0.00 0.00 72 1016.4
20260903090045 66 187 3.0 11.0 0.00 0.00 0.00 71 1016.8
20260903084535 66 157 5.0 11.0 0.00 0.00 0.00 72 1016.7
20260903083033 66 199 4.0 11.0 0.00 0.00 0.00 73 1017.0
20260903081529 65 179 1.0 9.0 0.00 0.00 0.00 76 1017.0
20260903080025 64 211 1.0 6.0 0.00 0.00 0.00 79 1017.1
20260903074523 64 153 1.0 5.0 0.00 0.00 0.00 78 1017.3
20260903073031 63 183 1.0 7.0 0.00 0.00 0.00 80 1017.4
20260903071526 62 165 3.0 8.0 0.00 0.00 0.00 82 1017.5
20260903070014 60 177 1.0 4.0 0.00 0.00 0.00 90 1017.4
20260903064508 57 154 0.0 4.0 0.00 0.00 0.00 95 1017.5
20260903063006 56 180 1.0 4.0 0.00 0.00 0.00 95 1017.7
20260903061501 56 194 0.0 3.0 0.00 0.00 0.00 95 1017.7
20260903060104 55 121 0.0 2.0 0.00 0.00 0.00 95 1017.6
20260903054559 55 196 0.0 0.0 0.00 0.00 0.00 95 1017.8
20260903053054 54 217 0.0 1.0 0.00 0.00 0.00 95 1017.9
20260903051609 54 217 0.0 2.0 0.00 0.00 0.00 95 1018.0
20260903050055 53 320 0.0 0.0 0.00 0.00 0.00 95 1017.9
20260903044553 53 320 0.0 0.0 0.00 0.00 0.00 95 1017.8
20260903043145 53 320 0.0 0.0 0.00 0.00 0.00 95 1017.8
20260903041547 53 320 0.0 0.0 0.00 0.00 0.00 94 1017.7
20260903040047 53 320 0.0 0.0 0.00 0.00 0.00 94 1017.9
20260903034545 53 320 0.0 0.0 0.00 0.00 0.00 94 1017.8
20260903033044 53 320 0.0 0.0 0.00 0.00 0.00 94 1017.8
20260903031541 53 320 0.0 0.0 0.00 0.00 0.00 94 1018.2
20260903030041 53 320 0.0 0.0 0.00 0.00 0.00 94 1018.0
20260903024543 54 320 0.0 0.0 0.00 0.00 0.00 94 1018.0
20260903023039 54 320 0.0 0.0 0.00 0.00 0.00 94 1018.2
20260903021538 54 320 0.0 0.0 0.00 0.00 0.00 94 1018.1
20260903020041 54 320 0.0 0.0 0.00 0.00 0.00 94 1018.2
20260903014637 54 320 0.0 0.0 0.00 0.00 0.00 94 1018.3
20260903013039 54 320 0.0 0.0 0.00 0.00 0.00 94 1018.2
20260903011535 54 320 0.0 0.0 0.00 0.00 0.00 94 1018.3
20260903010040 54 320 0.0 0.0 0.00 0.00 0.00 94 1018.4
20260903004536 54 320 0.0 0.0 0.00 0.00 0.00 94 1018.4
20260903003034 53 320 0.0 0.0 0.00 0.00 0.00 94 1018.4